Location: East Guldeford
(50.9500°N, 0.7500°E)
Time: 18:27:03
(UTC+00:00)

Cosmos 1933 Rocket - Pass Details

Date: 12 May 2021
Orbit: 606 x 630 km, 82.5° (Epoch: 16 June)

Event Time Altitude Azimuth Distance (km) Brightness Sun altitude
Rises 21:15:38 0° 347° (NNW) 2,880 8.3 -12.5°
Reaches altitude 10° 21:17:52 10° 346° (NNW) 1,970 7.3 -12.8°
Maximum altitude 21:22:12 70° 263° (W) 650 3.7 -13.2°
Enters shadow 21:25:44 15° 181° (S) 1,655 5.3 -13.5°
